This demonstration page uses our WeatherBlox Daily Observations layout. Learn more.

Hourly Observations for October 6, 2015

Temp ( °F °C ) Dew Point ( °F °C ) Humidity (%) Winds ( mph kmh ) Pressure ( in mb ) Visibility ( mi km ) Precip ( " mm )
12:15 am 00:15 Clear 50 10.2 45 7.1 81 81 SSE 7 11 30.15 1021 10 16.0934 0 0
12:35 am 00:35 Clear 49 9.7 45 7.1 84 84 SSE 7 11 30.15 1021 10 16.0934 0 0
12:55 am 00:55 Clear 49 9.7 45 7.1 84 84 SSE 6 9 30.15 1021 10 16.0934 0 0
1:15 am 01:15 Clear 49 9.3 45 7 86 86 SE 6 9 30.15 1021 10 16.0934 0 0
1:35 am 01:35 Clear 48 9.1 44 6.8 86 86 SE 5 7 30.15 1021 10 16.0934 0 0
1:55 am 01:55 Mostly Cloudy 49 9.4 45 7.2 86 86 SSE 5 7 30.15 1021 10 16.0934 0 0
2:15 am 02:15 Cloudy 50 10.1 46 7.7 85 85 SE 5 7 30.15 1021 10 16.0934 0 0
2:35 am 02:35 Cloudy 51 10.6 47 8.1 85 85 SSE 5 7 30.12 1020 10 16.0934 0 0
2:55 am 02:55 Cloudy 52 11 47 8.3 84 84 SE 6 9 30.12 1020 10 16.0934 0 0
3:15 am 03:15 Cloudy 52 11.1 47 8.6 85 85 SE 6 9 30.12 1020 10 16.0934 0 0
3:35 am 03:35 Cloudy 52 11.1 48 8.7 85 85 SE 5 7 30.12 1020 10 16.0934 0 0
3:55 am 03:55 Cloudy 53 11.5 48 9 85 85 SE 3 6 30.12 1020 10 16.0934 0 0
4:15 am 04:15 Cloudy 53 11.5 48 9.1 85 85 SE 3 6 30.12 1020 10 16.0934 0 0
4:35 am 04:35 Cloudy 53 11.7 49 9.4 86 86 Calm 30.12 1020 10 16.0934 0 0
4:55 am 04:55 Cloudy 53 11.6 49 9.5 87 87 Calm 30.12 1020 10 16.0934 0 0
5:15 am 05:15 Cloudy 54 12 49 9.7 86 86 Calm 30.12 1020 10 16.0934 0 0
5:35 am 05:35 Cloudy 54 12.3 50 9.8 85 85 Calm 30.12 1020 10 16.0934 0 0
5:55 am 05:55 Cloudy 54 12.3 50 10 86 86 Calm 30.12 1020 10 16.0934 0 0
6:15 am 06:15 Cloudy 54 12.2 50 10.1 87 87 Calm 30.12 1020 10 16.0934 0 0
6:35 am 06:35 Cloudy 54 12.3 50 10.1 87 87 ESE 3 6 30.12 1020 10 16.0934 0 0
6:55 am 06:55 Cloudy 55 12.5 50 10.1 85 85 Calm 30.12 1020 10 16.0934 0 0
7:15 am 07:15 Cloudy 55 12.5 50 10.1 85 85 Calm 30.12 1020 10 16.0934 0 0
7:35 am 07:35 Cloudy 55 12.6 50 10.2 85 85 Calm 30.12 1020 10 16.0934 0 0
7:55 am 07:55 Cloudy 55 12.6 51 10.3 86 86 SSE 3 6 30.12 1020 10 16.0934 0 0
8:15 am 08:15 Cloudy 55 12.7 50 10.2 85 85 Calm 30.15 1021 10 16.0934 0 0
8:35 am 08:35 Cloudy 55 13 50 10.2 83 83 SSE 3 6 30.15 1021 10 16.0934 0 0
8:55 am 08:55 Cloudy 56 13.1 50 10.2 83 83 SSE 3 6 30.15 1021 10 16.0934 0 0
9:15 am 09:15 Cloudy 56 13.6 51 10.3 81 81 S 6 9 30.12 1020 10 16.0934 0 0
9:35 am 09:35 Cloudy 57 14 51 10.6 80 80 SSW 5 7 30.12 1020 10 16.0934 0 0
9:55 am 09:55 Cloudy 58 14.5 51 10.7 78 78 S 5 7 30.12 1020 10 16.0934 0 0
10:15 am 10:15 Cloudy 59 15 52 11 77 77 Calm 30.12 1020 10 16.0934 0 0
10:35 am 10:35 Cloudy 60 15.5 52 11.1 75 75 Calm 30.15 1021 10 16.0934 0 0
10:55 am 10:55 Cloudy 61 15.9 52 11.3 74 74 Calm 30.15 1021 10 16.0934 0 0
11:15 am 11:15 Cloudy 62 16.4 53 11.5 73 73 Calm 30.15 1021 10 16.0934 0 0
11:35 am 11:35 Cloudy 63 17.1 53 11.7 71 71 Calm 30.15 1021 10 16.0934 0 0
11:55 am 11:55 Cloudy 64 17.7 53 11.7 68 68 Calm 30.12 1020 10 16.0934 0 0
12:15 pm 12:15 Cloudy 64 18 53 11.7 67 67 Calm 30.12 1020 10 16.0934 0 0
12:35 pm 12:35 Cloudy 65 18.4 53 11.8 66 66 Calm 30.12 1020 10 16.0934 0 0
12:55 pm 12:55 Cloudy 66 19 53 11.7 63 63 NE 3 6 30.12 1020 10 16.0934 0 0
1:15 pm 13:15 Cloudy 67 19.3 53 11.6 61 61 Calm 30.12 1020 10 16.0934 0 0
1:35 pm 13:35 Cloudy 67 19.7 54 12 61 61 NNE 5 7 30.12 1020 10 16.0934 0 0
1:55 pm 13:55 Cloudy 68 20 53 11.9 60 60 NNE 6 9 30.09 1019 10 16.0934 0 0
2:15 pm 14:15 Cloudy 69 20.6 54 12.1 58 58 NNE 5 7 30.06 1018 10 16.0934 0 0
2:35 pm 14:35 Cloudy 70 20.9 53 11.7 56 56 ENE 5 7 30.03 1017 10 16.0934 0 0
2:55 pm 14:55 Partly Cloudy 71 21.5 53 11.9 54 54 ENE 3 6 30.03 1017 10 16.0934 0 0
3:15 pm 15:15 Sunny 69 20.8 53 11.7 56 56 Calm 30.03 1017 10 16.0934 0 0
3:35 pm 15:35 Mostly Cloudy 70 21.2 54 12.1 56 56 NNE 6 9 30.03 1017 10 16.0934 0 0
3:55 pm 15:55 Cloudy 71 21.5 53 11.9 54 54 ENE 5 7 30.03 1017 10 16.0934 0 0
4:15 pm 16:15 Cloudy 71 21.5 54 12.2 56 56 NE 7 11 30.03 1017 10 16.0934 0 0
4:35 pm 16:35 Cloudy 71 21.5 54 12.1 55 55 NE 6 9 30.03 1017 10 16.0934 0 0
4:55 pm 16:55 Cloudy 71 21.5 54 12 55 55 ENE 5 7 30.03 1017 10 16.0934 0 0
5:15 pm 17:15 Cloudy with Haze 70 21.2 54 12.2 57 57 NNE 6 9 30.03 1017 5 8.0467 0 0
5:35 pm 17:35 Cloudy 70 21.1 54 12.2 57 57 NE 6 9 30.03 1017 7 11.26538 0 0
5:55 pm 17:55 Cloudy 69 20.8 54 12.3 58 58 ENE 6 9 30.03 1017 7 11.26538 0 0
6:15 pm 18:15 Cloudy 69 20.5 54 12.3 59 59 ENE 5 7 30.03 1017 10 16.0934 0 0
6:35 pm 18:35 Cloudy 68 20.2 54 12.4 61 61 ENE 5 7 30.06 1018 10 16.0934 0 0
6:55 pm 18:55 Cloudy 67 19.7 55 12.6 64 64 ENE 3 6 30.06 1018 10 16.0934 0 0
7:15 pm 19:15 Cloudy 67 19.2 55 12.6 66 66 ENE 3 6 30.06 1018 10 16.0934 0 0
7:35 pm 19:35 Cloudy 66 18.8 55 12.7 68 68 NE 3 6 30.06 1018 10 16.0934 0 0
7:55 pm 19:55 Cloudy 65 18.5 56 13.1 71 71 NE 3 6 30.06 1018 7 11.26538 0 0
8:15 pm 20:15 Cloudy 65 18.3 55 13 71 71 NE 5 7 30.06 1018 10 16.0934 0 0
8:35 pm 20:35 Cloudy 64 18 55 13 73 73 ENE 3 6 30.06 1018 10 16.0934 0 0
8:55 pm 20:55 Cloudy 64 17.9 55 12.9 73 73 NE 5 7 30.06 1018 10 16.0934 0 0
9:15 pm 21:15 Cloudy 64 17.7 55 12.8 73 73 NE 6 9 30.06 1018 7 11.26538 0 0
9:35 pm 21:35 Cloudy 64 17.7 55 12.8 73 73 ENE 6 9 30.06 1018 10 16.0934 0 0
9:55 pm 21:55 Cloudy 64 17.6 55 12.8 74 74 ENE 5 7 30.06 1018 10 16.0934 0 0
10:15 pm 22:15 Cloudy 64 17.5 55 12.8 74 74 ENE 6 9 30.06 1018 10 16.0934 0 0
10:35 pm 22:35 Cloudy 63 17.2 55 12.8 76 76 ENE 5 7 30.09 1019 10 16.0934 0 0
10:55 pm 22:55 Cloudy 63 17.1 55 13 77 77 ENE 3 6 30.12 1020 10 16.0934 0 0
11:15 pm 23:15 Cloudy 63 17.2 55 12.9 76 76 E 5 7 30.09 1019 10 16.0934 0 0
11:35 pm 23:35 Cloudy 63 17 55 13 77 77 E 6 9 30.09 1019 10 16.0934 0 0
11:55 pm 23:55 Cloudy 62 16.8 55 13 78 78 E 5 7 30.09 1019 10 16.0934 0 0

Powered by AerisWeather